Location: Newark
(59.4564°N, 26.6917°E)
Time: 16:31:04
(UTC+00:00)

Vanguard 3 - Pass Details

Date: 27 November 2019
Orbit: 508 x 3263 km, 33.3° (Epoch: 13 December)

Event Time Altitude Azimuth Distance (km) Brightness Sun altitude
Rises 15:44:23 0° 266° (W) 7,209 13.7 -16.1°
Reaches altitude 10° 15:53:05 10° 247° (WSW) 6,166 12.9 -17.1°
Maximum altitude 16:00:43 14° 223° (SW) 5,606 12.1 -18.1°
Drops below altitude 10° 16:07:45 10° 199° (SSW) 5,561 11.7 -19.0°
Sets 16:14:45 0° 177° (S) 6,038 11.7 -19.9°
